Погода в Кыштовке

Погода в Кыштовке : погода сейчас, прогноз погоды и архив. Всё, что Вы хотите узнать о погоде в Кыштовке!

Хотите узнать прогноз погоды в Кыштовке? Тогда Вам сюда: Погода в Кыштовке

Поиск расширенной информации на нашем сайте:

Другие новости

Новости СМИ2

Главная страница сайта

Новости сайта

03.07.2017

Напоминаем, что на нашем специализированном сайте Метеоцентр.Азия вы можете получить высокодетализированные автоматические прогнозы погоды по пунктам России, СНГ и мира в авиационном формате (включающие направление и скорость ветра, видимость, явления погоды, количество и форму облачности, нижнюю и верхнюю границу облачности).


Погода в Кыштовке - сегодня

Время (UTC), дата Ветер
(°,м/с) 
Видим.   Явления Облачность Т
(°С)
Тd
(°С)
f(%) Тe
(°С)
Pmin
(гПа)
dP
(гПа)
Po
(мм)
O2
(г/м3)
Тmin Tmax R s Состояние
почвы
21 24.07.17 320 (СЗ) 10 км    3/3 600 м кучево-дожд., верхняя 
[Cb calv|Ci fib]
+14.7 +13.7 94 +22  1001.4  -0.3  741  280           
00 25.07.17 340 (С) 0500 м  туман  ?/? 100 
+15.6 +14.6 94 +24  1001.7  0.4  741  279  +14.7      влажная 
03 25.07.17 320 (СЗ) 10 км  {туман}  8/8 300 м кучево-дожд. 
[Cb calv]
+18.8 +16.1 84 +30  1002.3  0.7  742  276           
06 25.07.17 300 (СЗ) 10 км  {туман}  6/6 600 м кучево-дожд. 
[Cb calv]
+21.6 +15.7 69 +32  1002.5  0.3  742  274           
09 25.07.17 280 (З) 10 км    10/8 600 м кучево-дожд., средняя 
[Cb calv|Ac trans]
+21 +15.8 72 +31  1003.7  0.3  743  275           
12 25.07.17 290 (З) 10 км    4/3 600 м кучево-дожд., верхняя 
[Cb calv|Ci fib]
+22.9 +15.3 62 +32  1003.5  -0.1  743  273    +23       
15 25.07.17 тихо ()   10 км    10/0 верхняя 
[Ci fib]
+19.2 +16.4 84 +31  1003.8  0.2  743  276           
18 25.07.17 230 (ЮЗ) 10 км    6/3 600 м кучево-дожд., верхняя 
[Cb calv|Ci fib]
+13.9 +12.8 93 +20  1004.1  743  282           
21 25.07.17 тихо ()   10 км    8/0 
+13.3 +12.2 93 +18  1004.2  0.1  743  283           
00 26.07.17 270 (З) 10 км    10/6 600 м кучево-дожд., средняя, верхняя 
[Cb calv|Ac trans|Ci fib]
+15.5 +14.5 94 +25  1004.1  743  280  +12.8        сухая 
03 26.07.17 180 (Ю) 4000 м  дымка{ливн. осадки}  9/3 600 м средняя, верхняя 
[Sc|Ac trans|Cc]
+18.6 +17.2 92 +33  1003.9  743  276           
06 26.07.17 330 (СЗ) 10 км  {ливн. осадки}  8/6 300 м кучево-дожд., средняя, верхняя 
[Cb calv|Ac trans|Ci fib]
+21.6 +17.7 78 +36  1004.1  0.3  743  273           
09 26.07.17 260 (З) 10 км    8/8 1000 м 
[Cu hum]
+25.1 +15.3 55 +35  1003.9  743  271           
12 26.07.17 250 (З) 10 км    8/6 1000 м кучево-дожд., верхняя 
[Cb calv|Ci fib]
+26.3 +15.4 51 +36  1004  0.1  743  270    +26.4  0.0     
15 26.07.17 320 (СЗ) 10 км    3/0 средняя 
[Ac trans]
+20.3 +16.5 79 +32  1004.7  0.1  743  275           
18 26.07.17 010 (С) 10 км    1/0 средняя 
[Ac trans]
+15.3 +14.1 93 +24  1005.3  0.4  744  281           
21 26.07.17 тихо ()   4000 м  дымка  3/0 средняя, верхняя 
[Ac trans|Ci fib]
+12.6 +11.6 94 +16  1005.7  0.3  744  284           
00 27.07.17 тихо ()   4000 м  дымка  9/3 600 м кучево-дожд., средняя, верхняя 
[Cb calv|Ac trans|Ci sp]
+15.3 +14.4 94 +23  1005  -0.7  743  281  +12.2        сухая 
03 27.07.17 тихо ()   4000 м  слаб. ливневой дождь{гроза}  10/9 600 м кучево-дожд., средняя 
[Cb calv|Ac trans]
+17.3 +16.2 93 +28  1005.3  0.4  744  278           
06 27.07.17 050 (СВ) 10 км  {гроза, ливн. осадки}  10/5 600 м кучево-дожд., средняя, верхняя 
[Cb calv|Ac trans|Ci fib]
+21.8 +17.2 75 +35  1004.3  -0.7  743  273           
09 27.07.17 020 (С) 10 км    9/4 600 м кучево-дожд., средняя, верхняя 
[Cb calv|Ac trans|Ci fib]
+22.6 +16.5 68 +34  1002.2  -2.1  742  272           
12 27.07.17 360 (С) 10 км    10/8 600 м кучево-дожд., средняя, верхняя 
[Cb calv|Ac trans|Ci fib]
+22.9 +17.4 71 +36  1000.7  -1.4  741  271    +24.2     
15 27.07.17 030 (СВ) 4000 м  гроза, ливневой дождь  10/9 600 м кучево-дожд., средняя 
[Cb calv|Ac trans]
+19.3 +17.8 91 +34  997.7  -3.1  738  274           
18 27.07.17 210 (ЮЗ) 2{10}  10 км  в посл. час гроза{ливн. осадки}  10/8 600 м кучево-дожд., средняя 
[Cb calv|Ac trans]
+18.2 +17 93 +32  996.7  -1  738  275           
21 27.07.17 190 (Ю) 10 км    10/10 240 м кучево-дожд. 
[Cb calv]
+17.9 +16.9 94 +31  996  -0.8  737  275           
Время (UTC), дата Ветер
(°,м/с) 
Видим.   Явления Облачность Т
(°С)
Тd
(°С)
f(%) Тe
(°С)
Pmin
(гПа)
dP
(гПа)
Po
(мм)
O2
(г/м3)
Тmin Tmax R s Состояние
почвы

Для получения пояснительной информации подведите курсор к названию столбца.

ПОГОДА в Кыштовке - архив

Всё, что Вы хотите узнать о погоде в Кыштовке - удобно и подробно!

Выберите нужную дату (начиная с 1 января 2015* года) и нажмите кнопку "Найти".
Будут отображены архивные сводки погоды по пункту Кыштовка, начиная с указанной даты.


Отображать данные в формате CSV (для использования в таблицах Excel)


Внимание! Наш архив погоды предназначен исключительно для личного некоммерческого использования в познавательных целях. Если Вам необходимы официальные справки о состоянии погоды (для производственных, юридических, коммерческих и т.п. целей), обращайтесь в органы Росгидромета.

*Примечание: данная дата относится к архиву по метеостанциям СССР (Россия, СНГ, Балтия).
Архив по метеостанциям Зарубежной Европы и Азии (кроме Китая) хранится 10 дней, по другим регионам земного шара (Китай, Африка, Америка, Австралия, Океания) - 1 день.

Кыштовка - район местоположения метеостанции


Название, широта, долгота, высота метеостанции:
Кыштовка 56.6°ш. 76.9°д. 116 м над ур. моря [Российская Федерация]

Дополнительная информация

В oтличие oт бoльшинства пoгoдных сайтoв мы публикуем пoдрoбную метеoинфoрмацию в детальнoм прoфессиoнальнoм фoрмате.

Характеристики температуры и влажнoсти вoздуха измеряются на высoте 2 м в тени вдали oт зданий и деревьев.
Скoрoсть ветра измеряется на высoте 10 м (на урoвне рoста челoвека скoрoсть ветра ниже в 1.5-2 раза). Если метеoстанция нахoдится в гoрoде или в лесу, тo скoрoсть ветра занижена на 2-4 м/с пo сравнению с oткрытым местoм. Скoрoсть ветра над акватoриями крупных рек и oзёр, а также на вершинах хoлмoв на 2-5 м/с выше, чем в oбычных услoвиях.
Атмoсфернoе давление в разных тoчках местнoсти мoжет значительнo oтличаться oт давления на метеoстанции, в зависимoсти oт услoвий рельефа (при пoдъёме на 10 м давление пoнижается примернo на 1 мм рт.ст.).